Retour au catalogue

STARLINK-33621

ActifCommunicationsVLEO
NORAD 63375·PAYLOAD·🇺🇸 United States

Lancé Mar 26, 2025 depuis Vandenberg Space Force Base

Loading…

Prochains Passages (prochaines 24 heures)

TLE

FraisSource: CelesTrak SupGP

Époque: Sep 14, 2026, 22:54 UTC

1 63375C 25063N   26257.95465278  .00033600  00000+0  99271-3 0  2577
2 63375  53.1575 247.4026 0001366  91.2513 157.1565 15.34374166    15

Suivez STARLINK-33621 en temps réel avec AllMySat

Download on the App Store